World > North America > United States > Mississippi > Plantersville  

Plantersville, MS Hourly Weather Updates

Feedback E-mail the Weather

Quick Clicks

Plantersville, MS Weather Maps

°F °C°F °C
Plantersville Weather Map
UTC Time: 6/23/2024, 23:55
Your Time:

Plantersville, MS Regional Weather

Expires:202406240000;;547352
ASUS44 KJAN 232310
RWRMS 

MISSISSIPPI HOURLY WEATHER ROUNDUP
NATIONAL WEATHER SERVICE JACKSON MS
600 PM CDT SUN JUN 23 2024

NOTE: "FAIR: INDICATES FEW OR NO CLOUDS BELOW 12,000 FEET WITH NO
SIGNIFICANT WEATHER AND/OR OBSTRUCTIONS TO VISIBILITY.


MSZ003>006-009-014>017-022>024-029>033-037>039-240000-
NORTHEAST MISSISSIPPI
  
CITY           SKY/WX    TMP DP  RH WIND       PRES   REMARKS
ABERDEEN       MOSUNNY   95  73  49 W7        29.88F HX 105           
COLUMBUS AFB   SUNNY     96  70  42 W8        29.83F HX 103           
CORINTH        PTSUNNY   91  77  62 W7G14     29.87S HX 105           
GOLDN TRIANGLE PTSUNNY   94  72  48 W6        29.88F HX 102           
IUKA           CLOUDY    89  76  65 CALM      29.87F HAZE    HX 100   
LOUISVILLE     MOSUNNY   93  72  49 W5        29.93F HX 100           
STARKVILLE     SUNNY     95  72  46 VRB3      29.87S HX 103           
TUPELO         MOSUNNY   93  74  53 SW8       29.87F HX 103           
$$


SKY/WX - Weather  TMP - Temperature  DP - Dew Point  RH - Humidity
WIND - Wind Direction/Speed PRES - Barometric Pressure VSB - Visibility
WCI - Wind Chill Index E13G22 Wind - East Wind 13 mph/Gusts of 22 mph

Trending Headlines

Trending Entertainment Headlines

Plantersville Radar Loop

Use the map search tool if you want to place a location marker on the radar map...

Plantersville Quick Facts

National Two Day Weather Forecast


E-mail the Plantersville Weather Forecast

Voice your opinion or tell us about page issues...